Wind_Speed
10 10 10 9 8 8 8 8 8 8 9 8 7 8 7 7 7 7 7 7 7 7 7 7 8 8 8 8 8 7 7 8 8 8 9 9 10 10 10 10 11 11 11
10 10 10 9 8 8 8 7 7 8 8 8 7 7 7 7 7 8 8 7 7 7 8 8 9 9 9 9 9 9 9 9 9 9 10 10 11 12 12 12 12 13 13
10 10 9 9 8 8 8 7 7 7 7 7 7 8 8 8 8 9 9 9 8 8 8 9 10 10 11 10 10 10 10 10 10 10 11 11 12 13 14 14 14 14 14
10 9 10 10 9 8 8 8 7 8 8 8 8 8 8 9 9 10 10 10 10 9 9 10 11 12 11 11 11 11 11 12 12 12 12 12 12 13 14 15 17 17 16
10 10 10 10 9 9 9 9 9 8 8 8 9 9 9 10 10 11 11 11 11 11 11 12 12 12 12 13 13 13 13 13 13 13 14 14 14 15 15 16 17 18 18
10 9 9 10 10 9 9 10 10 9 9 9 10 10 10 11 11 12 12 11 12 12 13 13 14 14 14 14 14 14 14 14 14 15 15 16 16 16 16 16 17 18 19
11 10 10 9 10 10 10 10 10 10 10 10 11 11 11 12 12 13 12 12 12 13 14 15 15 15 15 15 15 15 15 16 16 16 17 17 17 18 17 17 18 19 19
11 11 11 10 10 11 11 11 11 11 11 11 12 12 12 13 13 13 13 13 13 13 14 15 15 15 15 15 15 16 16 17 17 18 18 18 19 19 19 18 18 18 18
11 11 11 12 11 12 12 12 13 13 13 13 13 13 13 14 14 13 14 14 14 14 15 15 15 15 15 15 16 17 17 18 18 18 19 19 19 19 19 19 19 20 19
12 13 14 13 13 12 13 13 14 14 14 14 14 14 15 16 16 15 15 15 15 16 16 16 17 16 16 17 17 17 18 18 18 18 19 19 19 19 19 19 20 21 21
15 15 15 14 14 13 14 15 16 16 16 16 16 16 17 17 17 17 17 16 16 17 17 17 18 18 18 17 17 17 18 18 19 19 19 19 20 20 20 21 21 21 22
15 16 17 16 16 15 16 16 16 17 17 17 17 17 17 18 18 18 19 19 18 18 17 18 18 18 18 18 18 19 19 19 19 19 19 19 20 20 21 22 22 22 23
17 18 18 18 16 16 17 17 17 18 18 18 19 19 19 19 18 19 20 20 19 18 18 18 18 19 19 19 19 20 20 20 21 21 20 20 21 22 22 22 23 23 24
19 20 20 19 18 17 18 18 18 19 19 19 20 20 19 19 19 20 21 20 19 19 19 20 20 20 20 20 20 20 21 21 22 22 22 22 22 23 23 23 23 24 24
20 20 19 19 19 19 18 18 19 19 19 20 20 20 20 20 20 21 21 21 21 21 21 21 22 22 22 22 21 21 21 21 22 22 22 22 22 23 23 23 24 24 25
20 20 19 19 20 20 19 19 19 19 20 20 20 20 20 20 21 22 22 22 23 23 23 23 23 23 23 23 22 23 23 23 23 23 23 23 23 24 24 25 25 25 25
19 20 21 20 21 21 20 20 20 20 21 21 21 21 22 22 22 22 23 23 23 23 23 24 24 24 24 24 24 24 23 23 24 24 24 24 24 24 25 25 26 26 26
20 20 20 20 21 21 20 20 20 21 21 22 22 22 22 21 22 22 22 23 23 23 23 24 25 25 25 25 24 24 24 24 24 25 25 25 24 25 25 25 25 26 26
21 21 22 22 21 21 21 22 21 22 22 22 22 23 23 23 23 23 23 23 23 23 23 24 25 25 24 24 24 24 24 24 24 25 26 26 25 25 25 24 25 25 26
23 24 23 23 22 21 22 23 22 22 22 22 23 23 24 24 24 24 24 24 23 23 23 24 24 24 24 23 23 24 24 24 25 25 25 25 24 24 24 24 23 24 25
23 24 24 24 24 23 24 23 22 22 23 23 24 24 24 24 24 23 23 23 23 23 23 24 24 23 23 23 23 24 24 24 24 25 24 24 24 24 24 24 23 24 25
24 24 24 24 24 24 23 23 24 23 23 23 23 24 24 24 23 23 23 23 23 23 23 24 24 23 23 23 23 23 24 24 24 24 24 24 24 24 23 23 24 24 24
25 25 24 25 24 23 23 23 23 23 23 22 23 23 24 24 23 23 23 23 24 23 23 23 23 22 23 23 23 23 23 24 24 23 23 23 23 23 23 23 24 24 24
25 24 24 25 24 24 23 23 23 23 23 23 23 24 25 24 24 24 23 23 23 23 22 23 22 22 23 23 23 23 22 23 23 23 23 23 24 24 24 23 23 23 23
25 25 25 25 25 25 25 24 24 24 25 25 25 25 25 26 25 24 23 23 22 22 23 23 23 22 23 23 23 23 23 23 22 22 22 22 22 22 22 22 22 22 22
25 25 26 26 26 26 26 26 25 25 25 25 26 25 25 25 23 23 22 22 23 23 23 22 22 23 23 23 23 24 24 23 23 22 22 22 22 22 21 21 21 22 22
Wind_Direction
10 10 9 8 9 11 9 9 11 12 8 6 4 3 358 351 345 339 341 342 344 344 342 338 333 327 316 308 308 298 292 292 290 285 282 277 270 266 266 264 264 266 268
360 2 3 3 3 5 2 1 1 2 0 358 354 352 353 348 346 344 340 335 332 328 330 330 330 326 319 313 311 302 299 292 288 286 284 280 274 269 271 268 268 267 268
354 356 356 354 354 354 352 349 349 352 353 351 348 346 344 341 339 338 335 329 327 325 324 325 321 319 318 313 311 305 301 298 296 295 293 285 278 273 274 273 271 269 267
345 347 351 347 343 344 342 342 343 343 344 344 340 339 337 334 331 330 330 326 321 319 319 318 315 312 309 307 306 304 301 297 295 296 296 292 286 280 273 271 270 270 269
338 342 348 345 337 338 337 336 335 335 336 337 336 335 333 329 326 326 324 317 312 311 312 311 311 308 304 301 299 298 297 297 294 292 292 291 287 285 279 274 272 271 269
330 335 341 336 329 329 330 328 328 329 329 330 329 331 330 326 323 322 318 312 308 306 307 309 310 309 303 300 299 298 295 294 293 292 291 290 288 287 285 279 277 275 272
330 331 333 329 323 321 322 321 321 321 321 322 321 322 324 325 323 320 316 314 312 310 310 309 311 311 307 303 299 297 295 293 292 292 290 288 288 286 286 283 279 277 276
323 329 321 320 320 319 317 317 317 316 316 314 314 314 316 319 318 316 316 314 313 310 311 311 311 310 309 305 301 297 294 293 292 291 289 287 286 286 285 283 283 281 277
321 324 320 315 314 315 313 315 321 316 313 312 312 309 306 309 313 309 307 309 309 307 307 308 308 307 306 302 301 298 294 292 291 289 288 287 286 286 286 284 283 282 279
316 316 314 310 309 309 308 313 316 313 312 313 308 309 308 309 308 308 305 305 304 303 303 304 306 306 304 301 299 297 297 294 292 290 288 287 285 284 285 286 285 283 280
308 307 306 308 308 307 309 310 311 310 308 306 306 307 306 306 306 306 305 307 304 301 301 302 303 304 303 300 298 298 295 294 293 292 288 286 285 284 284 283 283 283 281
306 305 304 302 303 307 307 307 307 307 306 306 305 302 300 303 304 304 304 305 304 302 302 303 303 303 302 301 299 298 297 296 295 292 289 287 286 285 284 283 283 282 281
304 306 305 303 299 300 302 302 303 303 305 305 305 302 300 298 298 299 301 302 302 302 303 303 302 303 302 302 301 299 297 295 294 292 290 289 288 286 285 284 282 281 280
301 303 302 301 297 296 297 298 300 301 302 303 302 301 300 299 298 298 300 299 298 299 300 301 301 302 302 301 301 300 297 295 294 293 292 290 289 288 286 285 283 282 279
301 301 299 299 300 299 295 295 297 299 300 301 302 301 300 302 300 299 299 299 298 298 297 298 300 301 301 300 300 299 298 296 295 295 293 291 289 288 287 286 284 283 282
298 300 302 304 302 299 293 292 294 296 298 301 302 301 301 303 303 301 299 298 298 298 298 298 299 300 300 299 298 298 296 296 295 293 293 291 289 287 286 286 285 284 283
299 299 300 303 303 299 294 294 296 297 300 300 299 299 300 300 302 302 300 299 299 299 299 299 299 299 299 298 298 297 296 295 294 293 293 291 289 287 287 286 285 284 284
298 298 303 304 301 302 299 296 295 296 297 297 297 299 299 298 299 301 301 301 302 302 302 301 300 298 297 296 298 298 297 296 295 295 296 294 292 289 289 288 286 285 284
292 295 300 301 299 299 297 296 295 295 296 297 297 298 298 298 301 302 303 302 302 302 302 303 303 301 301 299 299 298 297 297 298 297 297 295 293 292 292 291 288 286 285
294 295 296 298 297 298 297 296 295 295 295 296 296 297 297 298 302 303 305 306 302 302 304 304 305 304 304 302 301 300 298 297 297 297 296 295 294 293 292 291 290 290 289
291 295 295 296 295 299 300 297 294 294 296 297 297 296 296 298 300 302 302 303 303 302 302 304 304 303 304 303 302 301 299 298 297 297 297 296 296 295 294 294 293 294 292
290 293 294 294 295 299 300 299 297 295 296 297 298 297 297 298 299 300 302 302 302 302 301 302 302 301 303 304 304 302 301 300 298 298 297 296 296 295 295 296 295 294 292
289 291 292 295 296 297 297 299 299 297 298 297 298 298 299 298 298 299 300 301 301 301 302 302 301 301 303 305 305 304 303 301 300 300 299 296 295 294 295 294 294 293 292
288 290 292 293 294 295 296 297 298 298 299 298 298 298 299 298 297 298 300 301 301 301 300 302 302 301 305 306 306 305 304 303 301 299 299 295 294 295 296 295 294 293 293
286 288 290 292 294 295 297 297 297 298 298 298 299 297 296 298 297 297 298 299 300 301 301 300 301 302 304 305 305 305 304 303 302 301 299 297 295 296 296 295 295 296 295
285 285 287 289 290 292 294 296 296 297 298 298 297 297 297 297 299 298 298 298 298 300 300 300 301 303 304 304 303 303 303 301 300 301 300 300 298 298 298 299 300 299 298
Height
5900 5898 5897 5896 5894 5893 5892 5891 5889 5888 5887 5885 5884 5883 5882 5881 5879 5878 5877 5876 5875 5873 5872 5871 5870 5868 5867 5867 5866 5865 5864 5864 5863 5863 5862 5862 5862 5862 5861 5861 5861 5861 5860
5899 5898 5896 5895 5894 5892 5891 5890 5889 5888 5886 5885 5883 5882 5881 5880 5878 5877 5876 5874 5873 5872 5871 5869 5868 5867 5865 5864 5863 5862 5861 5861 5860 5860 5859 5859 5859 5858 5858 5858 5857 5857 5856
5898 5896 5895 5894 5893 5892 5890 5889 5888 5887 5885 5884 5882 5881 5880 5878 5877 5876 5874 5873 5871 5870 5868 5867 5866 5864 5863 5861 5860 5859 5858 5858 5857 5856 5856 5855 5855 5854 5854 5853 5853 5852 5852
5897 5895 5893 5893 5892 5891 5889 5888 5887 5885 5884 5883 5881 5880 5878 5877 5875 5874 5872 5871 5869 5868 5866 5864 5863 5861 5860 5858 5857 5856 5855 5854 5853 5852 5852 5851 5850 5850 5850 5849 5848 5848 5847
5895 5894 5892 5892 5890 5889 5888 5887 5885 5884 5882 5881 5879 5878 5876 5875 5873 5872 5870 5868 5867 5865 5863 5861 5859 5858 5856 5855 5853 5852 5851 5850 5849 5848 5847 5846 5845 5845 5845 5844 5844 5843 5842
5893 5892 5891 5890 5889 5888 5887 5885 5884 5882 5881 5879 5877 5876 5874 5872 5871 5869 5867 5865 5863 5862 5860 5858 5856 5854 5852 5851 5850 5848 5847 5845 5844 5843 5842 5841 5840 5840 5839 5839 5838 5837 5836
5891 5890 5889 5888 5887 5886 5885 5883 5881 5880 5878 5877 5875 5873 5872 5870 5868 5866 5864 5862 5860 5858 5857 5855 5852 5850 5848 5847 5845 5844 5843 5841 5839 5838 5837 5836 5835 5834 5833 5833 5832 5831 5830
5889 5888 5887 5886 5885 5883 5882 5880 5879 5877 5875 5874 5872 5870 5869 5867 5865 5863 5861 5859 5857 5855 5853 5851 5849 5846 5844 5842 5841 5839 5838 5836 5834 5833 5831 5830 5829 5828 5827 5826 5825 5825 5824
5886 5886 5885 5883 5881 5880 5878 5877 5876 5874 5872 5870 5868 5867 5865 5863 5862 5859 5857 5855 5853 5851 5849 5847 5845 5842 5840 5838 5836 5834 5832 5831 5829 5827 5826 5824 5823 5822 5821 5820 5819 5818 5817
5883 5882 5881 5880 5878 5876 5875 5874 5872 5870 5868 5867 5866 5864 5862 5860 5858 5856 5853 5851 5849 5847 5845 5843 5840 5838 5835 5833 5831 5829 5827 5825 5823 5822 5820 5818 5817 5816 5815 5813 5812 5811 5810
5880 5879 5877 5876 5875 5873 5872 5870 5868 5866 5865 5863 5861 5859 5857 5856 5854 5851 5849 5847 5845 5842 5840 5838 5835 5833 5830 5828 5826 5824 5822 5819 5818 5816 5814 5812 5811 5809 5808 5807 5805 5804 5803
5876 5875 5873 5872 5871 5869 5868 5866 5864 5863 5861 5859 5857 5855 5853 5851 5849 5846 5844 5842 5840 5837 5835 5833 5830 5828 5825 5823 5820 5818 5816 5814 5811 5809 5807 5806 5804 5803 5801 5800 5799 5797 5796
5872 5871 5869 5868 5867 5865 5863 5862 5860 5858 5856 5854 5852 5850 5848 5846 5844 5842 5839 5837 5834 5832 5830 5828 5825 5823 5820 5817 5815 5813 5810 5808 5805 5803 5801 5799 5797 5796 5794 5793 5792 5790 5789
5868 5867 5866 5864 5862 5860 5858 5857 5855 5853 5851 5849 5847 5845 5843 5841 5838 5836 5833 5831 5829 5826 5824 5822 5819 5817 5814 5811 5809 5806 5804 5801 5799 5797 5794 5792 5790 5788 5787 5785 5784 5782 5781
5864 5862 5860 5859 5857 5855 5853 5851 5850 5849 5847 5844 5841 5839 5837 5835 5833 5830 5827 5825 5823 5821 5818 5816 5814 5811 5808 5806 5803 5800 5798 5795 5793 5790 5788 5785 5783 5781 5779 5778 5776 5774 5773
5859 5857 5855 5854 5851 5849 5848 5846 5845 5843 5841 5839 5837 5834 5831 5829 5827 5824 5822 5819 5816 5814 5812 5810 5807 5805 5802 5799 5796 5794 5791 5789 5786 5784 5781 5778 5776 5774 5772 5770 5768 5766 5764
5854 5852 5850 5848 5846 5844 5842 5840 5839 5837 5835 5833 5831 5829 5826 5824 5821 5818 5815 5813 5810 5808 5805 5803 5800 5798 5795 5792 5790 5787 5784 5782 5779 5776 5773 5771 5768 5766 5764 5762 5760 5758 5756
5848 5847 5845 5843 5841 5839 5837 5835 5833 5831 5829 5827 5825 5822 5820 5818 5815 5812 5809 5807 5804 5801 5799 5796 5793 5790 5788 5785 5782 5780 5777 5774 5771 5768 5765 5763 5760 5758 5756 5754 5752 5750 5748
5842 5841 5839 5837 5835 5833 5831 5829 5827 5825 5823 5821 5818 5816 5813 5811 5808 5806 5803 5800 5798 5795 5792 5789 5786 5784 5781 5778 5775 5772 5769 5766 5764 5761 5758 5755 5753 5750 5748 5746 5744 5742 5740
5836 5834 5833 5831 5828 5826 5825 5823 5820 5819 5817 5814 5812 5809 5807 5804 5802 5799 5797 5794 5791 5788 5785 5782 5779 5777 5774 5771 5768 5765 5762 5759 5757 5754 5751 5747 5745 5742 5740 5738 5736 5735 5732
5829 5828 5826 5824 5822 5820 5819 5817 5814 5812 5810 5807 5805 5802 5800 5797 5795 5793 5790 5787 5784 5781 5779 5776 5773 5770 5767 5764 5761 5758 5755 5752 5749 5746 5744 5741 5738 5736 5733 5731 5729 5727 5724
5823 5821 5819 5817 5816 5814 5812 5809 5807 5804 5802 5800 5798 5795 5792 5790 5788 5786 5783 5781 5778 5775 5772 5769 5766 5764 5761 5758 5754 5751 5748 5745 5742 5740 5737 5734 5732 5729 5727 5724 5722 5719 5717
5816 5814 5812 5811 5809 5807 5805 5803 5800 5798 5796 5794 5791 5788 5787 5784 5782 5779 5777 5774 5772 5769 5766 5763 5760 5757 5754 5751 5748 5745 5742 5738 5736 5733 5730 5728 5725 5723 5720 5717 5715 5712 5710
5809 5807 5805 5804 5802 5800 5798 5796 5794 5792 5790 5788 5786 5783 5781 5778 5775 5772 5770 5768 5765 5762 5760 5757 5754 5751 5748 5745 5742 5739 5736 5733 5730 5727 5724 5721 5719 5716 5713 5711 5708 5706 5703
5802 5800 5799 5797 5795 5794 5792 5789 5788 5785 5783 5781 5779 5776 5773 5771 5768 5765 5763 5761 5759 5756 5754 5751 5748 5746 5743 5740 5736 5733 5730 5727 5724 5721 5718 5715 5713 5710 5707 5705 5702 5699 5697
5795 5793 5792 5790 5789 5787 5785 5783 5781 5779 5776 5774 5771 5769 5766 5764 5761 5759 5756 5754 5752 5750 5747 5745 5743 5740 5737 5733 5730 5727 5724 5721 5719 5716 5713 5710 5707 5704 5702 5699 5696 5693 5691